Regional Weather Roundup
Issued by NWS Jackson, KY

Home | Current Version | Previous Version | Graphics & Text | Print | Product List | Glossary On
Versions: 1 2 3 4 5 6 7 8 9 10 11 12 13 14 15 16 17 18 19 20 21 22 23 24 25 26 27 28 29 30 31 32 33 34 35 36 37 38 39 40 41 42 43 44 45 46 47 48 49 50
000
ASUS43 KJKL 282010
RWRJKL

EAST KENTUCKY HOURLY WEATHER ROUNDUP
NATIONAL WEATHER SERVICE JACKSON KY
400 PM EDT SAT MAR 28 2015

NOTE: "FAIR" INDICATES FEW OR NO CLOUDS BELOW 12,000 FEET WITH
NO SIGNIFICANT WEATHER AND/OR OBSTRUCTIONS TO VISIBILITY.

* THESE REPORTS ARE NOT UNDER NWS QUALITY CONTROL AND MAY NOT
  REPORT WEATHER SUCH AS PRECIPITATION AND FOG.

KYZ079-080-083-085-087-088-110-112-115-119-120-282100
...EASTERN KENTUCKY...

CITY           SKY/WX    TMP DP  RH WIND       PRES   REMARKS
JACKSON        SUNNY     38  10  31 NW10      30.19S WCI  31
LONDON         MOSUNNY   41  11  29 NW13      30.20F
SOMERSET*      SUNNY     37  16  41 N10       30.25S WCI  30
MONTICELLO*    SUNNY     42  15  33 NW12      30.26F
MIDDLESBORO*   SUNNY     41  16  35 N8G17     30.18F
HAZARD APT*    CLEAR     41   9  26 N7        30.18
BLACK MTN*       N/A     25  25 100 VRB5        N/A  WCI  19
PIKEVILLE APT* SUNNY     36  10  35 NW9G17    30.16F WCI  29
BIG SANDY*     CLEAR     37  11  33 N3        30.19S
MOREHEAD APT*  CLEAR     34  12  40 NW10G16   30.26F WCI  26
$$

KYZ035-036-041-042-044-050-067-078-099-282100
...CENTRAL KENTUCKY...

CITY           SKY/WX    TMP DP  RH WIND       PRES   REMARKS
MT STERLING*   MOSUNNY   37  18  44 N9        30.25S WCI  31
FLEMING/MASON* MOSUNNY   32  12  43 N8G16     30.27F WCI  25
DANVILLE*      SUNNY     36  18  48 N5        30.26S WCI  32
RICHMOND*      MOSUNNY   37  12  35 N6G16     30.24F WCI  33
LEXINGTON      MOSUNNY   40  14  34 MISG      30.25F
FRANKFORT      SUNNY     40   9  28 N9        30.25F WCI  34
$$

KYZ091>093-OHZ055-061-077-WVZ005-015-034-035-042-282100
...SOUTHERN OHIO/WEST VIRGINIA...

CITY           SKY/WX    TMP DP  RH WIND       PRES   REMARKS
COVINGTON      MOSUNNY   36  12  37 NW8       30.26F WCI  30
COLUMBUS       MOSUNNY   31  12  45 N13G20    30.26S WCI  21
DAYTON         MOSUNNY   33  13  43 N12       30.27F WCI  24
WILMINGTON     MOSUNNY   31  11  43 VRB5      30.25F WCI  26
HUNTINGTON     SUNNY     35   9  33 N9        30.23S WCI  28
CHARLESTON     MOSUNNY   34   5  29 NW8G17    30.20S WCI  27
PINEVILLE*     SUNNY     35  12  38 MISG      30.18S
BECKLEY        MOSUNNY   27   6  41 NW17G25   30.08S WCI  14
BLUEFIELD      MOSUNNY   31   6  35 W16       30.04S WCI  20
$$

VAZ002-007-008-TNZ017-027-036-066-071-282100
...SOUTHWEST VIRGINIA/EAST TENNESSEE...

CITY           SKY/WX    TMP DP  RH WIND       PRES   REMARKS
WISE*          SUNNY     34  10  37 N8G18     30.10R WCI  27
JONESVILLE*    CLEAR     41  10  28 NW7       30.18S
ABINGDON*      MOSUNNY   37  10  32 NW13G18   30.10S WCI  29
BRISTOL        MOSUNNY   40  14  34 NW13G18   30.13S WCI  32
KNOXVILLE      MOSUNNY   45  13  27 NW6       30.17F
OAK RIDGE      SUNNY     48  11  22 N12       30.18F
CROSSVILLE     SUNNY     41   8  25 NW9G24    30.17S
NASHVILLE      MOSUNNY   48  12  23 NW14      30.26F
$$

...KEY TO REMARKS...
VSB - VISIBILITY IN MILES
WCI - WIND CHILL INDEX
HX  - HEAT INDEX

$$



USA.gov is the U.S. government's official web portal to all federal, state and local government web resources and services.